Notices

What's New in latest Release from April 7th, 2021:

- Updated Glossary, including Speed of Maximum Gust, and Total Hourly Precipitation

- Updated national and regional climate services offices contacts and prices information

- Addition of station inventory lists for 1981-2010, 1971-2000, and 1961-1990 Normals.

If you haven't already, please take our survey and provide feedback about our website: https://eccc.sondage-survey.ca/f/LanguageSelection.aspx?s=442ca660-fcf1-47c0-95a9-59707d6fd709

Hourly Data Report for February 02, 2017

TORONTO CITY
ONTARIO

43°40'00.000" N
79°24'00.000" W
112.50 m
6158355
71508
XTO

Download Data

Hourly Data (February 2017)
Hourly Data Report for February 2, 2017
TIME
LST
Temp Definition
°C
Dew Point Definition
°C
Rel Hum Definition
%
Precip. Amount Definition
mm

Wind Dir Definition
10's deg

Wind Spd Definition
km/h
Visibility Definition
km
Stn Press Definition
kPa
Hmdx Definition


Wind Chill Definition


Weather Definition


00:00 -1.5 -5.5 74 0.0 LegendMM LegendMM   100.16     LegendNANA
01:00 -1.7 -7.1 66 0.0 LegendMM LegendMM   100.19     LegendNANA
02:00 -2.2 -8.1 64 0.0 LegendMM LegendMM   100.22     LegendNANA
03:00 -2.4 -8.2 64 0.0 LegendMM LegendMM   100.25     LegendNANA
04:00 -3.0 -8.3 67 0.0 LegendMM LegendMM   100.28     LegendNANA
05:00 -3.4 -8.3 69 0.0 LegendMM LegendMM   100.31     LegendNANA
06:00 -3.6 -8.3 70 0.0 LegendMM LegendMM   100.30     LegendNANA
07:00 -3.7 -9.8 62 0.0 LegendMM LegendMM   100.40     LegendNANA
08:00 -3.5 -10.1 60 0.0 LegendMM LegendMM   100.44     LegendNANA
09:00 -3.1 -11.3 53 0.0 LegendMM LegendMM   100.46     LegendNANA
10:00 -2.5 -11.3 51 0.2 LegendMM LegendMM   100.49     LegendNANA
11:00 -2.1 -12.6 45 0.0 LegendMM LegendMM   100.52     LegendNANA
12:00 -2.7 -12.9 45 0.0 LegendMM LegendMM   100.53     LegendNANA
13:00 -3.0 -13.5 44 0.0 LegendMM LegendMM   100.53     LegendNANA
14:00 -2.9 -12.8 47 0.0 LegendMM LegendMM   100.53     LegendNANA
15:00 -3.7 -13.1 48 0.0 LegendMM LegendMM   100.59     LegendNANA
16:00 -4.2 -11.9 55 0.0 LegendMM LegendMM   100.68     LegendNANA
17:00 -4.7 -13.1 52 0.0 LegendMM LegendMM   100.75     LegendNANA
18:00 -4.8 -12.3 56 0.0 LegendMM LegendMM   100.81     LegendNANA
19:00 -5.1 -12.5 56 0.0 LegendMM LegendMM   100.86     LegendNANA
20:00 -5.3 -12.8 55 0.0 LegendMM LegendMM   100.84     LegendNANA
21:00 -5.1 -12.6 56 0.0 LegendMM LegendMM   100.87     LegendNANA
22:00 -5.1 -12.3 57 0.0 LegendMM LegendMM   100.86     LegendNANA
23:00 -5.2 -11.9 59 0.0 LegendMM LegendMM   100.81     LegendNANA

Notes on Data Quality.

Legend

  • E = Estimated
  • M = Missing
  • NA = Not Available*
  • [empty] = Indicates an unobserved value
Date modified: